カタログに戻る

SENTINEL 3A

運用中科学SSO
NORAD 41335·PAYLOAD·🇪🇺 EU

打ち上げ Feb 16, 2016 から Plesetsk Cosmodrome

Loading…

次のパス (今後24時間)

TLE

最新Source: Space-Track

元期: Sep 14, 2026, 15:10 UTC

1 41335U 16011A   26257.63212973  .00000072  00000-0  48004-4 0  9999
2 41335  98.6284 323.7190 0001112 106.5155 253.6148 14.26734794550813

AllMySatでSENTINEL 3Aをリアルタイム追跡

Download on the App Store